When you browse on this site, cookies collect data to enhance your experience and personalize the content and advertising you see.
Visit our Privacy Policy to learn more. By continuing to use the site, you agree to this use of cookies and data.
  • In Belgien
  • Länderverzeichnis
  • Für 7 Tage
  • Wassertemperatur
  • Satellitenkarten
  • Wetterkarte
  • Widgets
  • user-avatar
    Anmelden

    Stündliche Wetter Rybnica

    Heute, 22 Februar, Freitag

    Zeit Temperatur Niederschläge Wind Luftdruck Luftfeuchtigkeit
    00:00 +3°C° 0.7 mm 4 m/S 740 mmHg 91%
    01:00 +1°C° 0.7 mm 4 m/S 740 mmHg 92%
    02:00 0°C° 0.7 mm 4 m/S 740 mmHg 93%
    03:00 -1°C° 0.6 mm 4 m/S 740 mmHg 92%
    04:00 -4°C° 0.6 mm 5 m/S 740 mmHg 91%
    05:00 -5°C° 0.6 mm 6 m/S 740 mmHg 90%
    06:00 -6°C° 0.3 mm 7 m/S 741 mmHg 86%
    07:00 -7°C° 0.3 mm 7 m/S 742 mmHg 83%
    08:00 -7°C° 0.3 mm 7 m/S 743 mmHg 80%
    09:00 -7°C° 0 mm 7 m/S 745 mmHg 74%
    10:00 -8°C° 0 mm 7 m/S 746 mmHg 67%
    11:00 -8°C° 0 mm 7 m/S 747 mmHg 61%
    12:00 -7°C° 0 mm 7 m/S 748 mmHg 60%
    13:00 -7°C° 0 mm 7 m/S 748 mmHg 58%
    14:00 -6°C° 0 mm 6 m/S 749 mmHg 56%
    15:00 -6°C° 0 mm 6 m/S 749 mmHg 55%
    16:00 -6°C° 0 mm 6 m/S 750 mmHg 53%
    17:00 -8°C° 0 mm 6 m/S 750 mmHg 52%
    18:00 -8°C° 0 mm 6 m/S 751 mmHg 53%
    19:00 -7°C° 0 mm 5 m/S 751 mmHg 55%
    20:00 -8°C° 0 mm 5 m/S 752 mmHg 56%
    21:00 -8°C° 0 mm 5 m/S 753 mmHg 56%
    22:00 -8°C° 0 mm 5 m/S 753 mmHg 57%
    23:00 -8°C° 0 mm 5 m/S 753 mmHg 57%

    Morgen, 23 Februar, Samstag

    Zeit Temperatur Niederschläge Wind Luftdruck Luftfeuchtigkeit
    00:00 -8°C° 0 mm 5 m/S 754 mmHg 58%
    01:00 -8°C° 0 mm 5 m/S 754 mmHg 59%
    02:00 -8°C° 0 mm 4 m/S 754 mmHg 60%
    03:00 -8°C° 0 mm 4 m/S 755 mmHg 62%
    04:00 -8°C° 0 mm 4 m/S 755 mmHg 63%
    05:00 -9°C° 0 mm 4 m/S 755 mmHg 65%
    06:00 -9°C° 0 mm 4 m/S 755 mmHg 66%
    07:00 -9°C° 0 mm 4 m/S 755 mmHg 67%
    08:00 -9°C° 0 mm 4 m/S 755 mmHg 68%
    09:00 -8°C° 0 mm 4 m/S 756 mmHg 64%
    10:00 -8°C° 0 mm 4 m/S 756 mmHg 61%
    11:00 -7°C° 0 mm 4 m/S 757 mmHg 57%
    12:00 -7°C° 0 mm 4 m/S 756 mmHg 55%
    13:00 -5°C° 0 mm 4 m/S 756 mmHg 54%
    14:00 -5°C° 0 mm 4 m/S 756 mmHg 52%
    15:00 -5°C° 0 mm 3 m/S 756 mmHg 53%
    16:00 -5°C° 0 mm 3 m/S 756 mmHg 53%
    17:00 -5°C° 0 mm 3 m/S 756 mmHg 54%
    18:00 -5°C° 0 mm 3 m/S 756 mmHg 57%
    19:00 -5°C° 0 mm 2 m/S 756 mmHg 61%
    20:00 -5°C° 0 mm 2 m/S 756 mmHg 64%
    21:00 -3°C° 0 mm 1 m/S 756 mmHg 64%
    22:00 -3°C° 0 mm 1 m/S 756 mmHg 64%
    23:00 -4°C° 0 mm 1 m/S 756 mmHg 63%

    übermorgen, 24 Februar, Sonntag

    Zeit Temperatur Niederschläge Wind Luftdruck Luftfeuchtigkeit
    00:00 -3°C° 0 mm 1 m/S 756 mmHg 62%
    01:00 -3°C° 0 mm 1 m/S 756 mmHg 61%
    02:00 -3°C° 0 mm 1 m/S 756 mmHg 60%
    03:00 -3°C° 0 mm 1 m/S 755 mmHg 60%
    04:00 -3°C° 0 mm 1 m/S 755 mmHg 60%
    05:00 -3°C° 0 mm 1 m/S 755 mmHg 60%
    06:00 -5°C° 0 mm 2 m/S 755 mmHg 59%
    07:00 -5°C° 0 mm 2 m/S 755 mmHg 58%
    08:00 -5°C° 0 mm 2 m/S 755 mmHg 57%
    09:00 -4°C° 0 mm 2 m/S 754 mmHg 52%
    10:00 -3°C° 0 mm 2 m/S 754 mmHg 46%
    11:00 -2°C° 0 mm 2 m/S 754 mmHg 41%
    12:00 -1°C° 0 mm 2 m/S 754 mmHg 42%
    13:00 +1°C° 0 mm 2 m/S 754 mmHg 42%
    14:00 +1°C° 0 mm 2 m/S 754 mmHg 43%
    15:00 +1°C° 0 mm 2 m/S 753 mmHg 47%
    16:00 +1°C° 0 mm 2 m/S 753 mmHg 52%
    17:00 +1°C° 0 mm 2 m/S 753 mmHg 56%
    18:00 -1°C° 0 mm 2 m/S 753 mmHg 61%
    19:00 -2°C° 0 mm 2 m/S 753 mmHg 65%
    20:00 -3°C° 0 mm 2 m/S 753 mmHg 70%
    21:00 -3°C° 0 mm 2 m/S 753 mmHg 71%
    22:00 -3°C° 0 mm 2 m/S 753 mmHg 72%
    23:00 -3°C° 0 mm 2 m/S 753 mmHg 73%

    25 Februar, Montag

    Zeit Temperatur Niederschläge Wind Luftdruck Luftfeuchtigkeit
    00:00 -4°C° 0 mm 3 m/S 753 mmHg 72%
    01:00 -2°C° 0 mm 3 m/S 753 mmHg 71%
    02:00 -2°C° 0 mm 3 m/S 753 mmHg 71%
    03:00 -2°C° 0 mm 3 m/S 753 mmHg 69%
    04:00 -3°C° 0 mm 4 m/S 753 mmHg 68%
    05:00 -3°C° 0 mm 4 m/S 752 mmHg 66%
    06:00 -3°C° 0 mm 4 m/S 752 mmHg 66%
    07:00 -3°C° 0 mm 4 m/S 752 mmHg 66%
    08:00 -3°C° 0 mm 4 m/S 752 mmHg 66%
    09:00 -2°C° 0 mm 4 m/S 752 mmHg 66%
    10:00 -1°C° 0 mm 4 m/S 752 mmHg 66%
    11:00 +1°C° 0 mm 4 m/S 752 mmHg 66%
    12:00 +1°C° 0 mm 4 m/S 752 mmHg 69%
    13:00 +3°C° 0 mm 4 m/S 752 mmHg 71%
    14:00 +3°C° 0 mm 4 m/S 752 mmHg 74%
    15:00 +3°C° 0 mm 4 m/S 752 mmHg 79%
    16:00 +1°C° 0 mm 4 m/S 751 mmHg 83%
    17:00 +2°C° 0 mm 3 m/S 751 mmHg 88%
    18:00 +1°C° 0 mm 3 m/S 751 mmHg 91%
    19:00 +1°C° 0 mm 2 m/S 751 mmHg 93%
    20:00 -1°C° 0 mm 2 m/S 751 mmHg 96%
    21:00 -1°C° 0 mm 2 m/S 751 mmHg 97%
    22:00 -1°C° 0 mm 2 m/S 750 mmHg 97%
    23:00 -1°C° 0 mm 3 m/S 750 mmHg 97%

    26 Februar, Dienstag

    Zeit Temperatur Niederschläge Wind Luftdruck Luftfeuchtigkeit
    00:00 -1°C° 0 mm 3 m/S 750 mmHg 97%
    01:00 -1°C° 0 mm 3 m/S 749 mmHg 97%
    02:00 -2°C° 0 mm 4 m/S 749 mmHg 97%
    03:00 -2°C° 0 mm 4 m/S 748 mmHg 97%
    04:00 -1°C° 0 mm 4 m/S 747 mmHg 97%
    05:00 -1°C° 0 mm 5 m/S 747 mmHg 97%
    06:00 -1°C° 0 mm 5 m/S 746 mmHg 96%
    07:00 -1°C° 0 mm 5 m/S 746 mmHg 94%
    08:00 -1°C° 0 mm 5 m/S 746 mmHg 93%
    09:00 0°C° 0 mm 5 m/S 745 mmHg 88%
    10:00 +1°C° 0 mm 5 m/S 745 mmHg 82%
    11:00 +2°C° 0 mm 5 m/S 745 mmHg 77%
    12:00 +2°C° 0 mm 5 m/S 744 mmHg 75%
    13:00 +3°C° 0 mm 5 m/S 744 mmHg 73%
    14:00 +5°C° 0 mm 5 m/S 743 mmHg 71%
    15:00 +5°C° 0 mm 5 m/S 743 mmHg 73%
    16:00 +4°C° 0 mm 4 m/S 743 mmHg 75%
    17:00 +4°C° 0 mm 4 m/S 742 mmHg 77%
    18:00 +3°C° 0 mm 4 m/S 742 mmHg 81%
    19:00 +1°C° 0 mm 4 m/S 742 mmHg 84%
    20:00 0°C° 0 mm 4 m/S 742 mmHg 88%
    21:00 0°C° 0 mm 5 m/S 742 mmHg 90%
    22:00 0°C° 0 mm 5 m/S 741 mmHg 91%
    23:00 0°C° 0 mm 5 m/S 741 mmHg 93%

    27 Februar, Mittwoch

    Zeit Temperatur Niederschläge Wind Luftdruck Luftfeuchtigkeit
    00:00 -1°C° 0 mm 6 m/S 741 mmHg 91%
    01:00 -1°C° 0 mm 6 m/S 741 mmHg 89%
    02:00 -1°C° 0 mm 6 m/S 742 mmHg 88%
    03:00 -2°C° 0 mm 6 m/S 742 mmHg 88%
    04:00 -2°C° 0 mm 6 m/S 742 mmHg 88%
    05:00 -2°C° 0 mm 5 m/S 743 mmHg 88%
    06:00 -2°C° 0 mm 5 m/S 743 mmHg 89%
    07:00 -2°C° 0 mm 5 m/S 744 mmHg 89%
    08:00 -3°C° 0 mm 4 m/S 744 mmHg 89%
    09:00 -2°C° 0 mm 4 m/S 744 mmHg 84%
    10:00 0°C° 0 mm 5 m/S 745 mmHg 79%
    11:00 +1°C° 0 mm 5 m/S 745 mmHg 74%
    12:00 +2°C° 0 mm 5 m/S 745 mmHg 71%
    13:00 +3°C° 0 mm 5 m/S 745 mmHg 68%
    14:00 +3°C° 0 mm 5 m/S 744 mmHg 65%
    15:00 +4°C° 0 mm 4 m/S 744 mmHg 66%
    16:00 +4°C° 0 mm 4 m/S 744 mmHg 67%
    17:00 +4°C° 0 mm 4 m/S 744 mmHg 68%
    18:00 +3°C° 0 mm 3 m/S 744 mmHg 73%
    19:00 +2°C° 0 mm 3 m/S 744 mmHg 78%
    20:00 +2°C° 0 mm 2 m/S 744 mmHg 82%
    21:00 +2°C° 0 mm 2 m/S 743 mmHg 83%
    22:00 +1°C° 0 mm 2 m/S 743 mmHg 84%
    23:00 +1°C° 0 mm 2 m/S 743 mmHg 85%
    Mehr zeigen